TimeCDT,TemperatureF,Dew PointF,Humidity,Sea Level PressureIn,VisibilityMPH,Wind Direction,Wind SpeedMPH,Gust SpeedMPH,PrecipitationIn,Events,Conditions,WindDirDegrees,DateUTC
12:53 AM,66.0,48.9,54,29.84,10.0,Calm,Calm,-,0.03,Rain,Light Rain,0,2012-09-05 05:53:00
1:53 AM,62.1,55.0,78,29.83,10.0,NNW,9.2,-,0.00,,Overcast,340,2012-09-05 06:53:00
2:53 AM,61.0,53.1,75,29.83,10.0,NNW,10.4,-,N/A,,Scattered Clouds,330,2012-09-05 07:53:00
3:53 AM,61.0,52.0,72,29.83,10.0,NNW,11.5,-,0.00,Rain,Light Rain,330,2012-09-05 08:53:00
4:53 AM,59.0,51.1,75,29.86,10.0,NNW,6.9,-,0.03,,Scattered Clouds,330,2012-09-05 09:53:00
5:53 AM,55.9,50.0,80,29.87,10.0,SW,5.8,-,0.00,,Mostly Cloudy,230,2012-09-05 10:53:00
6:53 AM,57.0,48.9,74,29.88,10.0,West,9.2,-,N/A,,Overcast,260,2012-09-05 11:53:00
7:53 AM,55.0,46.9,74,29.90,10.0,West,5.8,-,N/A,,Clear,260,2012-09-05 12:53:00
8:53 AM,59.0,46.9,64,29.89,10.0,WNW,6.9,-,N/A,,Clear,290,2012-09-05 13:53:00
9:53 AM,64.0,48.0,56,29.90,10.0,NW,9.2,-,N/A,,Clear,310,2012-09-05 14:53:00
10:53 AM,70.0,48.9,47,29.90,10.0,NW,13.8,-,N/A,,Clear,310,2012-09-05 15:53:00
11:53 AM,72.0,46.0,40,29.88,10.0,WNW,20.7,-,N/A,,Clear,290,2012-09-05 16:53:00
12:53 PM,73.0,45.0,37,29.87,10.0,WNW,17.3,24.2,N/A,,Clear,290,2012-09-05 17:53:00
1:53 PM,75.0,46.9,37,29.86,10.0,WNW,19.6,25.3,N/A,,Clear,300,2012-09-05 18:53:00
2:53 PM,75.0,45.0,34,29.86,10.0,WNW,19.6,24.2,N/A,,Mostly Cloudy,300,2012-09-05 19:53:00
3:53 PM,73.0,45.0,37,29.85,10.0,NW,20.7,24.2,N/A,,Mostly Cloudy,310,2012-09-05 20:53:00
4:53 PM,75.9,44.1,32,29.85,10.0,WNW,11.5,-,N/A,,Partly Cloudy,290,2012-09-05 21:53:00
5:53 PM,73.9,41.0,30,29.86,10.0,WNW,11.5,-,N/A,,Clear,290,2012-09-05 22:53:00
6:53 PM,73.9,42.1,32,29.86,10.0,NW,15.0,-,N/A,,Clear,310,2012-09-05 23:53:00
7:53 PM,66.9,43.0,42,29.87,10.0,West,3.5,-,N/A,,Clear,270,2012-09-06 00:53:00
8:53 PM,60.1,44.1,55,29.88,10.0,West,6.9,-,N/A,,Clear,270,2012-09-06 01:53:00
9:53 PM,60.1,44.1,55,29.88,10.0,SW,3.5,-,N/A,,Clear,230,2012-09-06 02:53:00
10:53 PM,57.9,44.1,60,29.88,10.0,SSW,3.5,-,N/A,,Clear,210,2012-09-06 03:53:00
11:53 PM,55.9,44.1,64,29.88,10.0,SSW,5.8,-,N/A,,Clear,210,2012-09-06 04:53:00